Weather History for KCAV - October, 2012

Change the Weather History Date:

Thursday, October 25, 2012

  Actual Average Record
Temperature  
Mean Temperature 43 °F -  
Max Temperature 51 °F 57 °F 78 °F (1989)
Min Temperature 35 °F 34 °F 19 °F (2013)
Degree Days  
Heating Degree Days 22    
Moisture  
Dew Point 36 °F    
Average Humidity 87    
Maximum Humidity 100    
Minimum Humidity 70    
Precipitation  
Precipitation 0.89 in - - ()
Sea Level Pressure  
Sea Level Pressure 29.90 in    
Wind  
Wind Speed 19 mph (NW)    
Max Wind Speed 30 mph    
Max Gust Speed 39 mph    
Visibility 9 miles    
Events Rain    
Averages and records for this station are not official NWS values.
T = Trace of Precipitation, MM = Missing Value Source: NWS Daily Summary

Daily Weather History Graph

Daily Weather History Graph

Search for Another Location

Airport or City:

Trip Planner

Search our weather history database for the weather conditions in past years. The results will help you decide how hot, cold, wet, or windy it might be!

Date:

Astronomy

Oct. 25, 2012 Rise Set
Actual Time 7:40 AM CDT 6:16 PM CDT
Civil Twilight 7:11 AM CDT 6:45 PM CDT
Nautical Twilight 6:38 AM CDT 7:18 PM CDT
Astronomical Twilight 6:06 AM CDT 7:51 PM CDT
Moon 4:07 PM CDT (10/25) 3:33 AM CDT (10/25)
Length of Visible Light 11h 33m
Length of Day
10h 35m
Waxing Gibbous, 84% of the Moon is Illuminated
Oct 25
Waxing Gibbous
Oct 29
Full
Nov 6
Last Quarter
Nov 13
New
Nov 20
First Quarter

Hourly Weather History & Observations

Time (CDT) Temp. Windchill Dew Point Humidity Pressure Visibility Wind Dir Wind Speed Gust Speed Precip Events Conditions
12:15 AM 51.8 °F - 48.2 °F 88% 29.71 in 7.0 mi North 17.3 mph 23.0 mph N/A Rain Light Rain
12:35 AM 50.0 °F - 48.2 °F 94% 29.69 in 7.0 mi North 12.7 mph - 0.01 in Rain Rain
12:55 AM 50.0 °F - 48.2 °F 94% 29.70 in 10.0 mi North 11.5 mph 18.4 mph 0.07 in Rain Light Rain
1:15 AM 50.0 °F - 48.2 °F 94% 29.69 in 10.0 mi North 16.1 mph 21.9 mph N/A Rain Light Rain
1:35 AM 48.2 °F - 48.2 °F 100% 29.66 in 10.0 mi NNE 17.3 mph 23.0 mph 0.02 in Rain Light Rain
1:55 AM 50.0 °F - 48.2 °F 94% 29.66 in 7.0 mi NNE 11.5 mph - 0.03 in Rain Rain
2:35 AM 48.2 °F - 48.2 °F 100% 29.67 in 10.0 mi NW 8.1 mph - 0.14 in Rain Light Rain
2:55 AM 48.2 °F - 48.2 °F 100% 29.65 in 7.0 mi North 12.7 mph - 0.14 in   Light Drizzle
3:15 AM 48.2 °F - 46.4 °F 93% 29.66 in 4.0 mi NNW 16.1 mph 21.9 mph N/A Rain Rain
3:35 AM 46.4 °F 40.1 °F 46.4 °F 100% 29.64 in 5.0 mi North 15.0 mph 20.7 mph 0.01 in   Light Drizzle
3:55 AM 46.4 °F 39.2 °F 44.6 °F 93% 29.62 in 5.0 mi North 18.4 mph 24.2 mph 0.01 in   Light Drizzle
4:15 AM 46.4 °F 38.5 °F 44.6 °F 93% 29.67 in 5.0 mi NW 21.9 mph 25.3 mph N/A   Light Drizzle
4:35 AM 44.6 °F 36.9 °F 44.6 °F 100% 29.71 in 4.0 mi NW 18.4 mph 32.2 mph 0.03 in Rain Light Rain
4:55 AM 44.6 °F 37.2 °F 42.8 °F 93% 29.69 in 10.0 mi NNW 17.3 mph 23.0 mph 0.29 in Rain Rain
5:15 AM 44.6 °F 35.7 °F 42.8 °F 93% 29.58 in 10.0 mi NNE 24.2 mph 29.9 mph 0.10 in Rain Light Rain
5:35 AM 44.6 °F 36.9 °F 42.8 °F 93% 29.61 in 10.0 mi NE 18.4 mph - 0.11 in Rain Light Rain
5:55 AM 44.6 °F 36.9 °F 42.8 °F 93% 29.66 in 10.0 mi NW 18.4 mph 21.9 mph 0.11 in   Mostly Cloudy
6:35 AM 44.6 °F 37.2 °F 42.8 °F 93% 29.68 in 2.5 mi NW 17.3 mph 24.2 mph 0.11 in Rain Rain
6:55 AM 42.8 °F 34.0 °F 42.8 °F 100% 29.70 in 10.0 mi NW 20.7 mph 27.6 mph 0.13 in Rain Light Rain
7:15 AM 42.8 °F 35.1 °F 41.0 °F 93% 29.70 in 7.0 mi NW 16.1 mph 26.5 mph 0.05 in Rain Rain
7:35 AM 42.8 °F 35.1 °F 41.0 °F 93% 29.70 in 10.0 mi NW 16.1 mph 26.5 mph 0.05 in Rain Rain
7:55 AM 41.0 °F 31.4 °F 39.2 °F 93% 29.71 in 7.0 mi NNW 21.9 mph - 0.08 in Rain Rain
8:35 AM 39.2 °F 29.0 °F 37.4 °F 93% 29.73 in 10.0 mi NNW 21.9 mph 31.1 mph 0.02 in Rain Light Rain
8:55 AM 39.2 °F 28.5 °F 37.4 °F 93% 29.74 in 10.0 mi NNW 24.2 mph 31.1 mph 0.03 in   Overcast
9:15 AM 39.2 °F 28.7 °F 37.4 °F 93% 29.76 in 10.0 mi NNW 23.0 mph 29.9 mph N/A   Overcast
9:55 AM 39.2 °F 27.8 °F 37.4 °F 93% 29.79 in 2.5 mi NW 27.6 mph 33.4 mph N/A Rain Light Rain
10:15 AM 37.4 °F 25.6 °F 37.4 °F 100% 29.80 in 3.0 mi NW 26.5 mph 32.2 mph N/A Rain Light Rain
10:35 AM 37.4 °F 25.6 °F 35.6 °F 93% 29.81 in 4.0 mi NW 26.5 mph 39.1 mph N/A Rain Light Rain
10:55 AM 37.4 °F 26.1 °F 35.6 °F 93% 29.84 in 7.0 mi NW 24.2 mph 34.5 mph N/A Rain Light Rain
11:15 AM 37.4 °F 26.1 °F 35.6 °F 93% 29.83 in 5.0 mi NW 24.2 mph 35.7 mph N/A Rain Light Rain
11:35 AM 35.6 °F 22.7 °F 35.6 °F 100% 29.85 in 7.0 mi NW 28.8 mph 34.5 mph N/A   Overcast
12:15 PM 37.4 °F 25.0 °F 35.6 °F 93% 29.87 in 10.0 mi NW 29.9 mph 35.7 mph N/A   Overcast
12:35 PM 37.4 °F 25.4 °F 35.6 °F 93% 29.89 in 10.0 mi NW 27.6 mph 38.0 mph N/A   Overcast
12:55 PM 37.4 °F 25.6 °F 33.8 °F 87% 29.90 in 10.0 mi NW 26.5 mph 36.8 mph N/A   Overcast
1:15 PM 37.4 °F 25.2 °F 33.8 °F 87% 29.90 in 10.0 mi NW 28.8 mph 34.5 mph N/A   Overcast
1:55 PM 37.4 °F 25.4 °F 33.8 °F 87% 29.92 in 10.0 mi NW 27.6 mph 36.8 mph N/A   Overcast
2:15 PM 37.4 °F 25.6 °F 33.8 °F 87% 29.94 in 10.0 mi NW 26.5 mph 38.0 mph N/A   Overcast
2:35 PM 37.4 °F 25.6 °F 32.0 °F 81% 29.96 in 10.0 mi NW 26.5 mph 35.7 mph N/A   Overcast
2:55 PM 37.4 °F 25.2 °F 32.0 °F 81% 29.96 in 10.0 mi NW 28.8 mph 33.4 mph N/A   Overcast
3:15 PM 37.4 °F 25.6 °F 32.0 °F 81% 29.98 in 10.0 mi NW 26.5 mph 31.1 mph N/A   Overcast
3:35 PM 37.4 °F 26.1 °F 32.0 °F 81% 29.99 in 10.0 mi NW 24.2 mph 31.1 mph N/A   Overcast
3:55 PM 37.4 °F 26.1 °F 32.0 °F 81% 29.99 in 10.0 mi NW 24.2 mph 28.8 mph N/A   Overcast
4:15 PM 37.4 °F 26.1 °F 32.0 °F 81% 30.01 in 10.0 mi NW 24.2 mph 31.1 mph N/A   Overcast
4:35 PM 37.4 °F 26.1 °F 32.0 °F 81% 30.02 in 10.0 mi NW 24.2 mph 27.6 mph N/A   Overcast
4:55 PM 37.4 °F 26.4 °F 32.0 °F 81% 30.04 in 10.0 mi NW 23.0 mph 31.1 mph N/A   Overcast
5:15 PM 37.4 °F 26.6 °F 32.0 °F 81% 30.06 in 10.0 mi NW 21.9 mph 28.8 mph N/A   Overcast
5:35 PM 37.4 °F 26.9 °F 30.2 °F 75% 30.08 in 10.0 mi NW 20.7 mph 28.8 mph N/A   Overcast
5:55 PM 37.4 °F 27.2 °F 30.2 °F 75% 30.10 in 10.0 mi NW 19.6 mph 27.6 mph N/A   Overcast
6:15 PM 37.4 °F 27.2 °F 30.2 °F 75% 30.11 in 10.0 mi NW 19.6 mph 26.5 mph N/A   Overcast
6:35 PM 37.4 °F 27.5 °F 30.2 °F 75% 30.13 in 10.0 mi WNW 18.4 mph - N/A   Overcast
6:55 PM 35.6 °F 24.0 °F 28.4 °F 75% 30.14 in 10.0 mi NW 23.0 mph 27.6 mph N/A   Overcast
7:15 PM 35.6 °F 24.8 °F 28.4 °F 75% 30.15 in 10.0 mi NW 19.6 mph 26.5 mph N/A   Overcast
7:35 PM 35.6 °F 24.8 °F 30.2 °F 81% 30.16 in 10.0 mi NW 19.6 mph - N/A   Overcast
7:55 PM 35.6 °F 24.5 °F 28.4 °F 75% 30.16 in 10.0 mi NW 20.7 mph 27.6 mph N/A   Overcast
8:15 PM 35.6 °F 24.0 °F 28.4 °F 75% 30.17 in 10.0 mi NW 23.0 mph 27.6 mph N/A   Overcast
8:35 PM 35.6 °F 24.5 °F 28.4 °F 75% 30.18 in 10.0 mi WNW 20.7 mph 26.5 mph N/A   Overcast
8:55 PM 35.6 °F 24.2 °F 28.4 °F 75% 30.20 in 10.0 mi NW 21.9 mph 29.9 mph N/A   Overcast
9:15 PM 35.6 °F 25.5 °F 28.4 °F 75% 30.20 in 10.0 mi NW 17.3 mph 27.6 mph N/A   Overcast
9:35 PM 35.6 °F 26.2 °F 28.4 °F 75% 30.21 in 10.0 mi NW 15.0 mph 23.0 mph N/A   Overcast
9:55 PM 35.6 °F 24.5 °F 28.4 °F 75% 30.22 in 10.0 mi WNW 20.7 mph 24.2 mph N/A   Overcast
10:15 PM 35.6 °F 26.2 °F 28.4 °F 75% 30.23 in 10.0 mi NW 15.0 mph - N/A   Overcast
10:35 PM 35.6 °F 26.2 °F 28.4 °F 75% 30.23 in 10.0 mi NW 15.0 mph - N/A   Overcast
10:55 PM 35.6 °F 26.2 °F 26.6 °F 70% 30.23 in 10.0 mi NW 15.0 mph - N/A   Mostly Cloudy
11:15 PM 35.6 °F 26.6 °F 26.6 °F 70% 30.24 in 10.0 mi NW 13.8 mph - N/A   Mostly Cloudy